Regional Weather Roundup
Issued by NWS

Home | Current Version | Previous Version | Graphics & Text | Print | Product List | Glossary On
Versions: 1 2 3 4 5 6 7 8 9 10 11 12 13 14 15 16 17 18 19 20 21 22 23 24 25 26 27 28 29 30 31 32 33 34 35 36 37 38 39 40 41 42 43 44 45 46 47 48 49 50
000
ASUS43 KOAX 282110
RWRNE

WEATHER ROUNDUP FOR NEBRASKA
NATIONAL WEATHER SERVICE OMAHA NE
300 PM CST WED JAN 28 2015

NOTES: SATELLITE DATA IS BEING USED TO AUGMENT CLOUD COVER ABOVE
       12000 FEET.
       "FAIR" INDICATES FEW OR NO CLOUDS BELOW 12,000 FEET WITH NO
       SIGNIFICANT WEATHER AND/OR OBSTRUCTIONS TO VISIBILITY.

  * THESE STATIONS DO NOT REPORT WEATHER SUCH AS RAIN...SNOW OR FOG.

NEZ001>004-019>022-054>056-282200-
NEBRASKA PANHANDLE

CITY           SKY/WX    TMP DP  RH WIND       PRES   REMARKS
SCOTTSBLUFF      N/A     49  38  65 NW22G32   30.03R
ALLIANCE       PTSUNNY   56  30  37 NW29G39   29.96R
CHADRON        CLOUDY    52  36  54 NW22G32   29.99R
KIMBALL        PTSUNNY   50  35  56 NW29G36   30.03R
SIDNEY         MOSUNNY   56  33  42 NW32G45   30.00R
$$

NEZ057>060-069>072-079>082-282200-
SOUTHWEST NEBRASKA

CITY           SKY/WX    TMP DP  RH WIND       PRES   REMARKS
NORTH PLATTE   SUNNY     65  29  25 NW26G35   29.83R
IMPERIAL       SUNNY     63  31  30 NW32G41   29.89R
LEXINGTON      SUNNY     67  33  27 NW25G32   29.77R
MCCOOK         SUNNY     69  31  24 NW25G39   29.82R
OGALLALA       MOSUNNY   63  32  31 NW32G41   29.89R
$$

NEZ005>010-023>029-035>040-094-282200-
NORTH CENTRAL NEBRASKA

CITY           SKY/WX    TMP DP  RH WIND       PRES   REMARKS
VALENTINE      PTSUNNY   58  27  30 NW24G36   29.81R
AINSWORTH      SUNNY     61  29  29 NW29G36   29.78R
BROKEN BOW     SUNNY     66  34  30 NW23G37   29.75R
O`NEILL        SUNNY     63  36  36 NW18G26   29.70S
ORD            SUNNY     66  32  28 NW24G31   29.70R
THEDFORD       SUNNY     62  31  31 NW25G40   29.82R
$$

NEZ041-046>049-061>064-073>077-083>087-282200-
SOUTH CENTRAL NEBRASKA

CITY           SKY/WX    TMP DP  RH WIND       PRES   REMARKS
GRAND ISLAND   SUNNY     67  34  29 NW18      29.70S
AURORA         MOSUNNY   66  33  30 NW15      29.69S
HASTINGS         N/A     69  30  23 NW20      29.71S
HEBRON         PTSUNNY   67  29  24 NW9G18    29.70R
HOLDREGE       SUNNY     68  32  25 NW22G31   29.75S
KEARNEY *      SUNNY     70  34  26 NW21G26   29.73R
YORK           MOSUNNY   63  36  36 NW16      29.68S
$$

NEZ011>018-030>034-042>045-282200-
NORTHEAST NEBRASKA

CITY           SKY/WX    TMP DP  RH WIND       PRES   REMARKS
NORFOLK        MOSUNNY   63  36  36 NW13      29.65S
ALBION         PTSUNNY   66  33  29 NW18G24   29.67S
BLAIR          PTSUNNY   55  35  46 S12       29.66S
COLUMBUS *     MOSUNNY   59  36  41 W8        29.68F
FREMONT        MOSUNNY   55  34  43 SW5       29.68R
TEKAMAH        PTSUNNY   53  36  52 S8        29.67R
WAYNE          MOSUNNY   57  37  47 NW12      29.67R
$$

NEZ050>053-065>068-078-088>093-282200-
SOUTHEAST NEBRASKA

CITY           SKY/WX    TMP DP  RH WIND       PRES   REMARKS
LINCOLN        PTSUNNY   61  36  39 SW9       29.68F
OMAHA EPPLEY   PTSUNNY   55  36  48 S9        29.65F
BEATRICE       MOSUNNY   62  35  36 SW9       29.66F
FALLS CITY     PTSUNNY   71  38  29 SW15      29.66F
NEBRASKA CITY  PTSUNNY   65  30  27 SW9       29.66F
PLATTSMOUTH    PTSUNNY   60  33  35 S8        29.66F
$$

NEZ044-045-051>053-067-282200-
OMAHA AREA

CITY           SKY/WX    TMP DP  RH WIND       PRES   REMARKS
OMAHA EPPLEY   PTSUNNY   55  36  48 S9        29.65F
BLAIR          PTSUNNY   55  35  46 S12       29.66S
FREMONT        MOSUNNY   55  34  43 SW5       29.68R
MILLARD        PTSUNNY   59  37  43 S7        29.66S
OFFUTT AFB     PTSUNNY   58  36  43 SE10      29.65F
PLATTSMOUTH    PTSUNNY   60  33  35 S8        29.66F
WAHOO          FAIR      58  32  37 SW6       29.67R
$$


USA.gov is the U.S. government's official web portal to all federal, state and local government web resources and services.